This is the latest recevied weather packets stored in our database for station/object K5GTX. If no packets are shown the sender has not sent any weather packets the latest 10 day(s).
| Time | Temp. | Humidity | Pressure | Rain* | Wind** | Luminosity | Snow |
|---|---|---|---|---|---|---|---|
| 1777557279 | 16.11° C | 99% | 1020.6 hPa | 0 mm | - | 119 W/m² | - |
| 1777556976 | 16.11° C | 99% | 1020.8 hPa | 0 mm | - | 115 W/m² | - |
| 1777556672 | 15.56° C | 99% | 1020.9 hPa | 0 mm | - | 100 W/m² | - |
| 1777556368 | 15.56° C | 99% | 1021.1 hPa | 0 mm | - | 97 W/m² | - |
| 1777556062 | 15.56° C | 99% | 1020.9 hPa | 0 mm | - | 94 W/m² | - |
| 1777555757 | 15.56° C | 99% | 1021.1 hPa | 0 mm | - | 104 W/m² | - |
| 1777555454 | 15.56° C | 99% | 1021.1 hPa | 0 mm | - | 105 W/m² | - |
| 1777555149 | 15° C | 99% | 1020.6 hPa | 0 mm | - | 81 W/m² | - |
| 1777554847 | 15° C | 99% | 1020.9 hPa | 0 mm | - | 66 W/m² | - |
| 1777554544 | 15° C | 99% | 1021.2 hPa | 0 mm | - | 66 W/m² | - |
| 1777554241 | 15° C | 99% | 1021.1 hPa | 0 mm | - | 15 W/m² | - |
| 1777553938 | 15° C | 99% | 1021.1 hPa | 0 mm | - | 53 W/m² | - |
| 1777553634 | 15° C | 99% | 1021 hPa | 0 mm | - | 57 W/m² | - |
| 1777553330 | 15° C | 99% | 1021 hPa | 0 mm | - | 62 W/m² | - |
| 1777553026 | 15° C | 99% | 1021 hPa | 0 mm | - | 59 W/m² | - |
| 1777552721 | 14.44° C | 99% | 1021 hPa | 0 mm | - | 51 W/m² | - |
| 1777552417 | 14.44° C | 99% | 1021.1 hPa | 0 mm | - | 46 W/m² | - |
| 1777552114 | 14.44° C | 99% | 1020.6 hPa | 0 mm | - | 39 W/m² | - |
| 1777551811 | 14.44° C | 99% | 1020.9 hPa | 0 mm | - | 31 W/m² | - |
| 1777551503 | 14.44° C | 99% | 1020.7 hPa | 0 mm | - | 22 W/m² | - |
| 1777551200 | 14.44° C | 99% | 1021 hPa | 0 mm | - | 12 W/m² | - |
| 1777550897 | 14.44° C | 99% | 1020.7 hPa | 0 mm | - | 11 W/m² | - |
| 1777550593 | 14.44° C | 99% | 1020.6 hPa | 0 mm | - | 10 W/m² | - |
| 1777550289 | 14.44° C | 99% | 1020.7 hPa | 0 mm | - | 7 W/m² | - |
| 1777549986 | 14.44° C | 99% | 1020.5 hPa | 0 mm | - | 6 W/m² | - |
* Rain latest hour (hover to see other rain measurements)
** Current wind speed in m/s (hover to see current wind gust speed)